Home   Weather   Rimouski   Past weeks
Flag for Canada

Past Weather in Rimouski, Quebec, Canada — Yesterday and Last 2 Weeks

Now
18 °F

Clear.


Feels Like: 6 °F
Forecast: 37 / 16 °F
Wind: 10 mph from Southwest

Location: Mont Joli

Current Time: Mar 20, 2019 at 3:30:52 am

Latest Report: Mar 20, 2019 at 2:00 am


Visibility: 30 mi

Pressure: 30.25 "Hg

Humidity: 53%

Dew Point: 3 °F

Location of RimouskiLocation

Past Weather in Rimouski — Graph

°F

Rimouski Temperature Yesterday

Maximum temperature yesterday: 21 °F (at 4:00 pm)
Minimum temperature yesterday: 16 °F (at 5:00 am)
Average temperature yesterday: 18 °F

High & Low Weather Summary for the Past Weeks

 TemperatureHumidityPressure
High46 °F (Mar 15, 3:23 pm)93% (Mar 9, 5:00 am)30.50 "Hg (Mar 9, 5:00 am)
Low3 °F (Mar 7, 6:00 am)31% (Mar 10, 3:00 pm)29.34 "Hg (Mar 16, 10:24 am)
Average23 °F67%29.90 "Hg
* Reported Mar 5 1:00 am — Mar 20 2:00 am, Rimouski. Weather by CustomWeather, © 2019

Note: Actual official high and low records may vary slightly from our data, if they occured in-between our weather recording intervals... More about our weather records

Advertising

Rimouski Weather History for the Previous 24 Hours

Scroll right to see more
 ConditionsComfort  
Time TempWeatherWind HumidityBarometerVisibility
2:00 am
Wed, Mar 20
18 °FClear.10 mph53%30.25 "Hg30 mi
1:00 am18 °FClear.10 mph53%30.26 "Hg30 mi
12:00 am18 °FClear.10 mph53%30.27 "Hg30 mi
11:00 pm
Tue, Mar 19
19 °FClear.9 mph53%30.27 "Hg30 mi
10:00 pm19 °FClear.12 mph49%30.28 "Hg30 mi
9:00 pm19 °FClear.12 mph49%30.28 "Hg30 mi
8:00 pm19 °FClear.12 mph49%30.28 "Hg30 mi
7:00 pm19 °FClear.6 mph58%30.29 "Hg30 mi
6:00 pm21 °FSunny.8 mph54%30.28 "Hg30 mi
5:00 pm21 °FPassing clouds.8 mph49%30.28 "Hg30 mi
4:00 pm21 °FPassing clouds.8 mph49%30.29 "Hg30 mi
3:00 pm19 °FScattered clouds.8 mph63%30.30 "Hg30 mi
2:55 pm19 °FScattered clouds.8 mph63%30.30 "Hg30 mi
2:00 pm19 °FLight snow. Partly sunny.10 mph68%30.30 "Hg30 mi
1:00 pm19 °FLight snow. Partly sunny.12 mph68%30.32 "Hg30 mi
12:00 pm19 °FLight snow. Overcast.12 mph68%30.32 "Hg10 mi
11:00 am18 °FLight snow. Overcast.10 mph79%30.32 "Hg15 mi
10:00 am18 °FLight snow. Overcast.10 mph68%30.31 "Hg15 mi
9:00 am16 °FLight snow. Overcast.8 mph67%30.30 "Hg15 mi
8:32 am16 °FLight snow. Overcast.9 mph62%30.29 "Hg15 mi
8:00 am16 °FPartly sunny.8 mph67%30.29 "Hg30 mi
7:00 am16 °FPartly sunny.9 mph67%30.26 "Hg30 mi
6:00 am16 °FPassing clouds.9 mph62%30.24 "Hg30 mi
5:00 am16 °FPassing clouds.9 mph67%30.23 "Hg30 mi
4:00 am18 °FPassing clouds.9 mph58%30.22 "Hg30 mi
3:00 am18 °FPassing clouds.9 mph62%30.22 "Hg30 mi
Weather by CustomWeather, © 2019

See weather overview